{"data":{"norad_id":65619,"epoch":"2026-05-25T04:48:41.594688Z","epoch_age_seconds":64478,"freshness":"FRESH","line1":"1 65619U 25209C   26145.20048142 -.00000044  00000+0  15062-3 0  9999","line2":"2 65619  49.9995  82.8220 0002305  38.6015 321.5027 13.41459358 34559","mean_motion":13.41459358,"eccentricity":0.0002305,"inclination_deg":49.9995,"raan_deg":82.822,"arg_perigee_deg":38.6015,"mean_anomaly_deg":321.5027,"bstar":0.00015062,"rev_number":3455,"period_min":107.34577916299,"perigee_km":1102.1233193244,"apogee_km":1105.572514371,"semimajor_km":7481.9849168477,"source":"CELESTRAK","updated_at":"2026-05-25T13:38:05.554815Z"}}